Content
SEND FEEDBACK

Daily
Averages
Monthly
Summary
United States of America

NEW YORK - CENTRAL PARK, NEW YORK


Home > North America > United States > New York
Elevation: 14 feet     Latitude: 40 47N     Longitude: 073 58W

WEATHER
 
SELECT A DAY
Number of Records: 148,168;   Date Range: 11/1/95 - 8/12/14
 
SHARE

PRINT THIS DATA

[ ← Previous Day ]
WEATHER ALMANAC - MAY 22, 2013
[ Next Day → ]
[ °C ]   °F
Weather ElementAverageHighLow
Temperature69.9 °F77 °F (4:51 pm)59 °F (6:24 am)
Dewpoint63.4 °F68 °F (2:24 pm)55.9 °F (6:24 am)
Humidity80.3 %90 % (6:24 am)67 % (1:26 pm)
Barometer29.90 in29.96 in (6:24 am)29.85 in (2:51 am)
Wind Speed4.1 mph11.5 mph (5:51 am)
Wind Gust23 mph (6:24 am)
Weather ElementAverage
Visibility5.1 mi
Wind DirectionENE (51.8 °)

Weather ElementTotal
Precipitation---
Cooling Degree Days3 (Base 65)
Growing Degree Days18 (Base 50)
Averaged from 34 records on May 22, 2013
WEATHER CONDITIONS BREAKOUT
WIND DIRECTION BREAKOUT
WEATHER BY HOUR - MAY 22, 2013
[ °C ]   °F
Local TimeTemperatureDewpointHumidityBarometerVisibilityWind DirectionWind SpeedGust SpeedPrecipitationEventsConditions
1:51 AM73.0 °F66.0 °F79 %29.86 in9.0 miVariable4.6 mphClear
2:51 AM73.0 °F66.0 °F79 %29.85 in9.0 miVariable5.8 mphClear
3:51 AM72.0 °F66.0 °F81 %29.87 in8.0 miCalmScattered Clouds
4:07 AM70.0 °F64.0 °F81 %29.90 in8.0 miEast (100°)5.8 mphMostly Cloudy
4:51 AM64.9 °F60.1 °F84 %29.88 in7.0 miENE (70°)8.1 mphOvercast
5:08 AM64.0 °F60.1 °F87 %29.91 in6.0 miENE (70°)8.1 mphOvercast
5:16 AM64.0 °F59.0 °F84 %29.92 in6.0 miENE (60°)6.9 mphHaze
5:51 AM62.1 °F57.0 °F84 %29.91 in6.0 miNE (50°)11.5 mph20.7 mphHaze
6:24 AM59.0 °F55.9 °F90 %29.96 in6.0 miENE (70°)11.5 mph23.0 mphOvercast
6:51 AM59.0 °F55.9 °F90 %29.94 in6.0 miEast (80°)10.4 mph21.9 mphOvercast
7:33 AM59.0 °F55.9 °F90 %29.96 in4.0 miEast (80°)6.9 mphOvercast
7:51 AM60.1 °F55.9 °F86 %29.93 in5.0 miVariable4.6 mphOvercast
8:51 AM61.0 °F57.0 °F87 %29.93 in4.0 miVariable3.5 mphOvercast
9:51 AM64.0 °F59.0 °F84 %29.93 in4.0 miCalmHaze
10:51 AM66.9 °F61.0 °F81 %29.93 in4.0 miCalmHaze
11:51 AM70.0 °F60.1 °F71 %29.92 in4.0 miENE (60°)4.6 mphHaze
12:51 PM73.0 °F63.0 °F71 %29.91 in4.0 miCalmHaze
1:26 PM75.9 °F64.0 °F67 %29.92 in4.0 miCalmHaze
1:51 PM75.9 °F64.9 °F69 %29.88 in4.0 miCalmHaze
2:24 PM73.9 °F68.0 °F82 %29.91 in3.0 miSW (230°)4.6 mphHaze
2:36 PM73.9 °F68.0 °F82 %29.91 in2.5 miSW (230°)4.6 mphHaze
2:51 PM73.9 °F68.0 °F82 %29.88 in2.5 miVariable4.6 mphHaze
3:21 PM75.0 °F68.0 °F79 %29.91 in3.0 miWSW (250°)5.8 mphHaze
3:38 PM75.0 °F68.0 °F79 %29.90 in3.0 miWSW (240°)3.5 mphHaze
3:51 PM75.9 °F68.0 °F76 %29.86 in4.0 miCalmHaze
4:13 PM75.9 °F66.9 °F74 %29.88 in4.0 miVariable3.5 mphHaze
4:51 PM77.0 °F68.0 °F74 %29.86 in4.0 miSouth (170°)5.8 mphHaze
5:51 PM75.9 °F68.0 °F76 %29.85 in4.0 miVariable4.6 mphHaze
6:51 PM75.0 °F68.0 °F79 %29.85 in5.0 miCalmHaze
7:51 PM72.0 °F64.0 °F76 %29.85 in5.0 miCalmHaze
8:51 PM70.0 °F64.0 °F81 %29.86 in6.0 miCalmHaze
9:51 PM70.0 °F64.9 °F84 %29.88 in6.0 miCalmHaze
10:51 PM73.0 °F66.9 °F81 %29.88 in7.0 miNorthClear
11:51 PM73.0 °F66.9 °F81 %29.88 in7.0 miVariable4.6 mphClear
Hourly data recorded from KNYC, located miles away from New York - Central Park, New York







STORIES FROM OUR PARTNERS